Torna al catalogo

SL-14 DEB

AttivoPO
NORAD 45308·DEBRIS·🇷🇺 Russia

Lanciato Aug 15, 1991 da Plesetsk Cosmodrome

Loading…

Prossimi Passaggi (prossime 24 ore)

TLE

AggiornatoSource: Space-Track

Epoca: Sep 13, 2026, 18:17 UTC

1 45308U 91056AW  26256.76245283  .00000342  00000-0  78071-3 0  9994
2 45308  82.5717  66.9706 0029217 180.6532 179.4561 13.23080704316070

Traccia SL-14 DEB in tempo reale con AllMySat

Download on the App Store